Location: Newark
(25.6108°S, 54.5803°W)
Time: 07:56:47
(UTC+00:00)

Courier 1B - Pass Details

Date: 29 October 2020
Orbit: 962 x 1209 km, 28.3° (Epoch: 02 December)

Event Time Altitude Azimuth Distance (km) Brightness Sun altitude
Rises 07:47:21 0° 259° (W) 4,118 - -14.5°
Reaches altitude 10° 07:50:23 10° 265° (W) 3,142 - -13.8°
Exits shadow 07:51:23 14° 268° (W) 2,834 9.4 -13.6°
Maximum altitude 07:57:43 44° 334° (NNW) 1,571 8.3 -12.3°
Drops below altitude 10° 08:04:45 10° 43° (NE) 3,007 10.4 -10.8°
Sets 08:07:36 0° 50° (NE) 3,927 11.1 -10.2°
